Home   Weather   Magdeburg   Past weeks

Flag for Germany Past Weather in Magdeburg, Saxony-Anhalt, Germany — Yesterday and Last 2 Weeks

Now
39 °F

Sunny.


Feels Like: 37 °F
Forecast: 21 / 35 °F
Wind: 3 mph from East

Location: Braunschweig Wolfsburg

Current Time: Dec 4, 2016 at 3:24:38 pm

Latest Report: Dec 4, 2016 at 2:50 pm


Visibility: 10 mi

Pressure: 30.39 "Hg

Humidity: 75%

Dew Point: 32 °F

Location of MagdeburgLocation

Past Weather in Magdeburg — Graph

°F

Magdeburg Temperature Yesterday

Maximum temperature yesterday: 41 °F (at 2:20 pm)
Minimum temperature yesterday: 23 °F (at 7:50 am)
Average temperature yesterday: 32 °F

High & Low Weather Summary for the Past Weeks

 TemperatureHumidityPressure
High57 °F (Nov 20, 7:20 pm)100% (Nov 23, 6:50 pm)30.57 "Hg (Nov 23, 6:50 pm)
Low19 °F (Nov 29, 7:20 am)50% (Nov 20, 11:20 am)29.45 "Hg (Nov 20, 1:50 pm)
Average40 °F81%30.12 "Hg
* Reported Nov 19 1:20 pm — Dec 4 1:50 pm, Magdeburg, Weather by CustomWeather, © 2016

Note: Actual official high and low records may vary slightly from our data, if they occured in-between our weather recording intervals... More about our weather records

Advertising

Magdeburg Weather History for the Previous 24 Hours

Scroll right to see more
 ConditionsComfort  
Time TempWeatherWind HumidityBarometerVisibility
1:50 pm
Sun, Dec 4
37 °FSunny.3 mph75%30.42 "Hg10 mi
1:20 pm37 °FChilly.2 mph81%30.42 "HgN/A
12:50 pm36 °FSunny.2 mph81%30.42 "Hg10 mi
12:20 pm36 °FSunny.No wind81%30.42 "Hg10 mi
11:50 am32 °FSunny.No wind93%30.42 "Hg10 mi
11:20 am30 °FSunny.No wind93%30.42 "Hg10 mi
10:50 am28 °FSunny.2 mph93%30.42 "Hg10 mi
10:20 am27 °FSunny.No wind93%30.42 "Hg10 mi
9:50 am27 °FSunny.1 mph93%30.42 "Hg10 mi
9:20 am23 °FSunny.No wind93%30.42 "Hg10 mi
8:50 am21 °FSunny.No wind100%30.42 "Hg10 mi
8:20 am21 °FSunny.3 mph93%30.39 "Hg10 mi
7:50 am21 °FClear.1 mph100%30.39 "Hg10 mi
7:20 am21 °FClear.No wind86%30.39 "Hg10 mi
5:20 pm
Sat, Dec 3
32 °FClear.No wind93%30.33 "Hg10 mi
4:20 pm36 °FClear.2 mph81%30.30 "Hg10 mi
3:50 pm37 °FSunny.3 mph81%30.30 "Hg10 mi
3:20 pm39 °FSunny.3 mph75%30.30 "Hg10 mi
Weather by CustomWeather, © 2016

See weather overviewHow to use our weather pages